User: anonymous   Login
Location: Vancouver
(49.2500°N, 123.1330°W)
Time: 18:37:32
(UTC-08:00)
Language:

Cosmos 1340 Rocket - Orbit

View from above orbital plane
View from above orbital plane
View from above satellite
View from above satellite

Ground track
Ground track

The orbit data is extracted from the following two-line orbital elements,

1 13068U 82013B   15028.52710094  .00001307  00000-0  89616-4 0  6088
2 13068 081.2056 135.5230 0021422 308.9221 051.0092 15.05211691792429
Epoch (UTC): 28 January 2015 12:39:01
Eccentricity: 0.0021422
inclination: 81.2056°
perigee height: 536 km
apogee height: 566 km
right ascension of ascending node: 135.5230°
argument of perigee: 308.9221°
revolutions per day: 15.05211691
mean anomaly at epoch: 51.0092°
orbit number at epoch: 79242

The dashed part of the orbit path shows where the satellite is in the earth's shadow,  

DLR